Location: Hurstbourne Priors
(51.2000°N, 1.3667°W)
Time: 18:02:45
(UTC+00:00)

STARLINK-1243 - Pass Details

Date: 09 April 2020
Orbit: 549 x 550 km, 53.0° (Epoch: 29 May)

Event Time Altitude Azimuth Distance (km) Brightness Sun altitude
Rises 19:06:22 0° 282° (WNW) 2,732 10.2 -2.9°
Reaches altitude 10° 19:08:37 10° 284° (WNW) 1,838 8.4 -3.3°
Maximum altitude 19:12:47 75° 10° (N) 579 3.8 -3.9°
Drops below altitude 10° 19:16:58 10° 97° (E) 1,836 5.6 -4.5°
Enters shadow 19:17:56 - 98° (E) 2,219 6.0 -4.7°
